Location: ?????????
(54.7630°N, 39.4991°E)
Time: 09:54:31
(UTC+00:00)

Cosmos 1818 - Pass Details

Date: 14 April 2026
Orbit: 774 x 797 km, 65.0° (Epoch: 18 May)

Event Time Altitude Azimuth Distance (km) Brightness Sun altitude
Rises 22:08:49 0° 313° (NW) 3,310 7.2 -24.8°
Reaches altitude 10° 22:11:19 10° 308° (NW) 2,378 6.3 -24.7°
Enters shadow 22:15:47 44° 260° (W) 1,094 4.0 -24.6°
